contact:dominique.lefevre@mio.osupytheas.fr, maurice.libes@osupytheas.fr, didier.mallarino@osupytheas.fr
Project:EMSO http://www.emso-fr.org/EMSO-France
Depth: 2436.0 m
Title:EMSO Ligure Ouest : Data MII capteur MICROCAT
DateTime_Computer,Latitude,Longitude,Temperature,Conductivity,Pressure,DateTime_Instrument
DateTime_Computer,Latitude,Longitude,degC,S m-1,dbar,DateTime_Instrument
2020-12-04T00:02:03Z,42.805,6.029,13.2996,4.60004,2470.11,2020-12-04T02:03:01Z
2020-12-04T00:05:06Z,42.805,6.029,13.2999,4.60011,2470.11,2020-12-04T02:06:04Z
2020-12-04T00:08:09Z,42.805,6.029,13.2996,4.60024,2470.133,2020-12-04T02:09:07Z
2020-12-04T00:11:12Z,42.805,6.029,13.2998,4.60003,2470.133,2020-12-04T02:12:10Z
2020-12-04T00:14:16Z,42.805,6.029,13.2998,4.60013,2470.087,2020-12-04T02:15:14Z
2020-12-04T00:17:19Z,42.805,6.029,13.3000,4.60049,2470.124,2020-12-04T02:18:17Z
2020-12-04T00:20:22Z,42.805,6.029,13.2998,4.60011,2470.124,2020-12-04T02:21:20Z
2020-12-04T00:23:25Z,42.805,6.029,13.3000,4.60017,2470.11,2020-12-04T02:24:23Z
2020-12-04T00:26:28Z,42.805,6.029,13.3002,4.60006,2470.147,2020-12-04T02:27:26Z
2020-12-04T00:29:31Z,42.805,6.029,13.2996,4.60017,2470.11,2020-12-04T02:30:29Z
2020-12-04T00:32:34Z,42.805,6.029,13.2996,4.60019,2470.11,2020-12-04T02:33:32Z
2020-12-04T00:35:37Z,42.805,6.029,13.3009,4.60011,2470.1,2020-12-04T02:36:35Z
2020-12-04T00:38:41Z,42.805,6.029,13.2998,4.59996,2470.124,2020-12-04T02:39:39Z
2020-12-04T00:41:44Z,42.805,6.029,13.2994,4.60007,2470.087,2020-12-04T02:42:42Z
2020-12-04T00:44:47Z,42.805,6.029,13.3011,4.60012,2470.1,2020-12-04T02:45:45Z
2020-12-04T00:47:50Z,42.805,6.029,13.3008,4.60000,2470.087,2020-12-04T02:48:48Z
2020-12-04T00:50:53Z,42.805,6.029,13.3004,4.60001,2470.1,2020-12-04T02:51:51Z
2020-12-04T00:53:56Z,42.805,6.029,13.3003,4.60014,2470.1,2020-12-04T02:54:54Z
2020-12-04T00:56:59Z,42.805,6.029,13.2991,4.60007,2470.087,2020-12-04T02:57:57Z
2020-12-04T01:00:02Z,42.805,6.029,13.2991,4.60004,2470.087,2020-12-04T03:01:00Z
2020-12-04T01:03:05Z,42.805,6.029,13.2998,4.60006,2470.1,2020-12-04T03:04:03Z
2020-12-04T01:06:09Z,42.805,6.029,13.2993,4.60012,2470.063,2020-12-04T03:07:07Z
2020-12-04T01:09:12Z,42.805,6.029,13.2991,4.60013,2470.063,2020-12-04T03:10:10Z
2020-12-04T01:12:15Z,42.805,6.029,13.3001,4.60013,2470.1,2020-12-04T03:13:13Z
2020-12-04T01:15:18Z,42.805,6.029,13.2993,4.60005,2470.087,2020-12-04T03:16:16Z
2020-12-04T01:18:21Z,42.805,6.029,13.2992,4.60011,2470.063,2020-12-04T03:19:19Z
2020-12-04T01:21:24Z,42.805,6.029,13.2993,4.60005,2470.053,2020-12-04T03:22:22Z
2020-12-04T01:24:27Z,42.805,6.029,13.2993,4.59997,2470.087,2020-12-04T03:25:25Z
2020-12-04T01:27:30Z,42.805,6.029,13.2999,4.60001,2470.077,2020-12-04T03:28:28Z
2020-12-04T01:30:34Z,42.805,6.029,13.2998,4.60001,2470.073,2020-12-04T03:31:32Z
2020-12-04T01:33:37Z,42.805,6.029,13.3002,4.59999,2470.063,2020-12-04T03:34:35Z
2020-12-04T01:36:40Z,42.805,6.029,13.3003,4.60006,2470.087,2020-12-04T03:37:38Z
2020-12-04T01:39:43Z,42.805,6.029,13.2998,4.60004,2470.063,2020-12-04T03:40:41Z
2020-12-04T01:42:46Z,42.805,6.029,13.2996,4.59995,2470.1,2020-12-04T03:43:44Z
2020-12-04T01:45:49Z,42.805,6.029,13.2999,4.59998,2470.1,2020-12-04T03:46:47Z
2020-12-04T01:48:52Z,42.805,6.029,13.3002,4.59997,2470.053,2020-12-04T03:49:50Z
2020-12-04T01:51:55Z,42.805,6.029,13.2998,4.60002,2470.087,2020-12-04T03:52:53Z
2020-12-04T01:54:58Z,42.805,6.029,13.2998,4.59994,2470.11,2020-12-04T03:55:56Z
2020-12-04T01:58:02Z,42.805,6.029,13.2996,4.59994,2470.087,2020-12-04T03:59:00Z
2020-12-04T02:01:05Z,42.805,6.029,13.2994,4.59997,2470.063,2020-12-04T04:02:03Z
2020-12-04T02:04:08Z,42.805,6.029,13.2992,4.59999,2470.063,2020-12-04T04:05:06Z
2020-12-04T02:07:11Z,42.805,6.029,13.2996,4.59999,2470.063,2020-12-04T04:08:09Z
2020-12-04T02:10:14Z,42.805,6.029,13.2998,4.59999,2470.077,2020-12-04T04:11:12Z
2020-12-04T02:13:17Z,42.805,6.029,13.2996,4.59994,2470.077,2020-12-04T04:14:15Z
2020-12-04T02:16:20Z,42.805,6.029,13.2998,4.60003,2470.063,2020-12-04T04:17:18Z
2020-12-04T02:19:23Z,42.805,6.029,13.3000,4.59996,2470.04,2020-12-04T04:20:21Z
2020-12-04T02:22:26Z,42.805,6.029,13.2993,4.60000,2470.077,2020-12-04T04:23:25Z
2020-12-04T02:25:30Z,42.805,6.029,13.3000,4.59997,2470.017,2020-12-04T04:26:28Z
2020-12-04T02:28:33Z,42.805,6.029,13.2993,4.59996,2470.063,2020-12-04T04:29:31Z
2020-12-04T02:31:36Z,42.805,6.029,13.2996,4.59995,2470.077,2020-12-04T04:32:34Z
2020-12-04T02:34:39Z,42.805,6.029,13.3000,4.59999,2470.04,2020-12-04T04:35:37Z
2020-12-04T02:37:42Z,42.805,6.029,13.2998,4.59999,2470.077,2020-12-04T04:38:40Z
2020-12-04T02:40:45Z,42.805,6.029,13.2996,4.60001,2470.077,2020-12-04T04:41:43Z
2020-12-04T02:43:48Z,42.805,6.029,13.2996,4.60003,2470.053,2020-12-04T04:44:46Z
2020-12-04T02:46:51Z,42.805,6.029,13.2998,4.59992,2470.087,2020-12-04T04:47:49Z
2020-12-04T02:49:55Z,42.805,6.029,13.2999,4.59999,2470.1,2020-12-04T04:50:53Z
2020-12-04T02:52:58Z,42.805,6.029,13.2999,4.60003,2470.077,2020-12-04T04:53:56Z
2020-12-04T02:56:01Z,42.805,6.029,13.2998,4.59994,2470.04,2020-12-04T04:56:59Z
2020-12-04T02:59:04Z,42.805,6.029,13.2992,4.59996,2470.04,2020-12-04T05:00:02Z
2020-12-04T03:02:07Z,42.805,6.029,13.2998,4.59996,2470.077,2020-12-04T05:03:05Z
2020-12-04T03:05:10Z,42.805,6.029,13.2993,4.59996,2470.063,2020-12-04T05:06:08Z
2020-12-04T03:08:13Z,42.805,6.029,13.2998,4.59996,2470.04,2020-12-04T05:09:11Z
2020-12-04T03:11:16Z,42.805,6.029,13.2994,4.59991,2470.053,2020-12-04T05:12:14Z
2020-12-04T03:14:19Z,42.805,6.029,13.2996,4.59993,2470.04,2020-12-04T05:15:18Z
2020-12-04T03:17:23Z,42.805,6.029,13.3000,4.59996,2470.053,2020-12-04T05:18:21Z
2020-12-04T03:20:26Z,42.805,6.029,13.2997,4.59996,2470.053,2020-12-04T05:21:24Z
2020-12-04T03:23:29Z,42.805,6.029,13.2995,4.59994,2470.063,2020-12-04T05:24:27Z
2020-12-04T03:26:32Z,42.805,6.029,13.2997,4.59996,2470.063,2020-12-04T05:27:30Z
2020-12-04T03:29:35Z,42.805,6.029,13.2993,4.59994,2470.063,2020-12-04T05:30:33Z
2020-12-04T03:32:38Z,42.805,6.029,13.2997,4.59999,2470.077,2020-12-04T05:33:36Z
2020-12-04T03:35:41Z,42.805,6.029,13.2997,4.59997,2470.077,2020-12-04T05:36:39Z
2020-12-04T03:38:44Z,42.805,6.029,13.3000,4.59991,2470.077,2020-12-04T05:39:42Z
2020-12-04T03:41:48Z,42.805,6.029,13.3000,4.59995,2470.04,2020-12-04T05:42:46Z
2020-12-04T03:44:51Z,42.805,6.029,13.3000,4.59995,2470.077,2020-12-04T05:45:49Z
2020-12-04T03:47:54Z,42.805,6.029,13.3000,4.59996,2470.053,2020-12-04T05:48:52Z
2020-12-04T03:50:57Z,42.805,6.029,13.2998,4.59994,2470.063,2020-12-04T05:51:55Z
2020-12-04T03:54:00Z,42.805,6.029,13.2998,4.59998,2470.04,2020-12-04T05:54:58Z
2020-12-04T03:57:03Z,42.805,6.029,13.2996,4.59998,2470.087,2020-12-04T05:58:01Z
2020-12-04T04:00:06Z,42.805,6.029,13.2997,4.60006,2470.087,2020-12-04T06:01:04Z
2020-12-04T04:03:09Z,42.805,6.029,13.3004,4.59997,2470.063,2020-12-04T06:04:07Z
2020-12-04T04:06:13Z,42.805,6.029,13.2997,4.59994,2470.077,2020-12-04T06:07:11Z
2020-12-04T04:09:16Z,42.805,6.029,13.2998,4.59999,2470.04,2020-12-04T06:10:14Z
2020-12-04T04:12:19Z,42.805,6.029,13.2994,4.59995,2470.077,2020-12-04T06:13:17Z
2020-12-04T04:15:22Z,42.805,6.029,13.2996,4.59998,2470.063,2020-12-04T06:16:20Z
2020-12-04T04:18:25Z,42.805,6.029,13.2996,4.59999,2470.04,2020-12-04T06:19:23Z
2020-12-04T04:21:28Z,42.805,6.029,13.2996,4.59995,2470.063,2020-12-04T06:22:26Z
2020-12-04T04:24:31Z,42.805,6.029,13.2998,4.60001,2470.04,2020-12-04T06:25:29Z
2020-12-04T04:27:34Z,42.805,6.029,13.2997,4.59993,2470.1,2020-12-04T06:28:32Z
2020-12-04T04:30:37Z,42.805,6.029,13.2999,4.59992,2470.077,2020-12-04T06:31:35Z
2020-12-04T04:33:41Z,42.805,6.029,13.2996,4.59997,2470.087,2020-12-04T06:34:39Z
2020-12-04T04:36:44Z,42.805,6.029,13.2989,4.59986,2470.077,2020-12-04T06:37:42Z
2020-12-04T04:39:47Z,42.805,6.029,13.2995,4.59999,2470.063,2020-12-04T06:40:45Z
2020-12-04T04:42:50Z,42.805,6.029,13.3003,4.59997,2470.063,2020-12-04T06:43:48Z
2020-12-04T04:45:53Z,42.805,6.029,13.2996,4.59996,2470.1,2020-12-04T06:46:51Z
2020-12-04T04:48:56Z,42.805,6.029,13.2997,4.59996,2470.087,2020-12-04T06:49:54Z
2020-12-04T04:51:59Z,42.805,6.029,13.2996,4.59997,2470.063,2020-12-04T06:52:57Z
2020-12-04T04:55:02Z,42.805,6.029,13.2996,4.60001,2470.087,2020-12-04T06:56:00Z
2020-12-04T04:58:06Z,42.805,6.029,13.2998,4.59999,2470.063,2020-12-04T06:59:04Z
2020-12-04T05:01:09Z,42.805,6.029,13.2996,4.59996,2470.1,2020-12-04T07:02:07Z
2020-12-04T05:04:12Z,42.805,6.029,13.2997,4.59993,2470.087,2020-12-04T07:05:10Z
2020-12-04T05:07:15Z,42.805,6.029,13.2989,4.59996,2470.124,2020-12-04T07:08:13Z
2020-12-04T05:10:18Z,42.805,6.029,13.2995,4.59994,2470.087,2020-12-04T07:11:16Z
2020-12-04T05:13:21Z,42.805,6.029,13.2991,4.59999,2470.1,2020-12-04T07:14:19Z
2020-12-04T05:16:24Z,42.805,6.029,13.2994,4.59994,2470.11,2020-12-04T07:17:22Z
2020-12-04T05:19:27Z,42.805,6.029,13.2993,4.59996,2470.11,2020-12-04T07:20:25Z
2020-12-04T05:22:30Z,42.805,6.029,13.2993,4.59996,2470.096,2020-12-04T07:23:28Z
2020-12-04T05:25:34Z,42.805,6.029,13.2994,4.59997,2470.087,2020-12-04T07:26:32Z
2020-12-04T05:28:37Z,42.805,6.029,13.2996,4.59997,2470.147,2020-12-04T07:29:35Z
2020-12-04T05:31:40Z,42.805,6.029,13.2997,4.59999,2470.133,2020-12-04T07:32:38Z
2020-12-04T05:34:43Z,42.805,6.029,13.2999,4.60002,2470.124,2020-12-04T07:35:41Z
2020-12-04T05:37:46Z,42.805,6.029,13.3001,4.59997,2470.124,2020-12-04T07:38:44Z
2020-12-04T05:40:49Z,42.805,6.029,13.2994,4.59997,2470.11,2020-12-04T07:41:47Z
2020-12-04T05:43:52Z,42.805,6.029,13.2998,4.59993,2470.11,2020-12-04T07:44:50Z
2020-12-04T05:46:55Z,42.805,6.029,13.2997,4.59995,2470.133,2020-12-04T07:47:53Z
2020-12-04T05:49:59Z,42.805,6.029,13.2990,4.60000,2470.147,2020-12-04T07:50:57Z
2020-12-04T05:53:02Z,42.805,6.029,13.2998,4.59998,2470.156,2020-12-04T07:54:00Z
2020-12-04T05:56:05Z,42.805,6.029,13.2999,4.59995,2470.171,2020-12-04T07:57:03Z
2020-12-04T05:59:08Z,42.805,6.029,13.2998,4.59994,2470.18,2020-12-04T08:00:06Z
2020-12-04T06:02:11Z,42.805,6.029,13.2995,4.59996,2470.18,2020-12-04T08:03:09Z
2020-12-04T06:05:14Z,42.805,6.029,13.2998,4.59994,2470.156,2020-12-04T08:06:12Z
2020-12-04T06:08:17Z,42.805,6.029,13.2996,4.59995,2470.156,2020-12-04T08:09:15Z
2020-12-04T06:11:20Z,42.805,6.029,13.2998,4.59996,2470.194,2020-12-04T08:12:18Z
2020-12-04T06:14:23Z,42.805,6.029,13.2999,4.59993,2470.194,2020-12-04T08:15:21Z
2020-12-04T06:17:26Z,42.805,6.029,13.2998,4.59996,2470.18,2020-12-04T08:18:25Z
2020-12-04T06:20:30Z,42.805,6.029,13.2999,4.59996,2470.203,2020-12-04T08:21:28Z
2020-12-04T06:23:33Z,42.805,6.029,13.2998,4.59999,2470.194,2020-12-04T08:24:31Z
2020-12-04T06:26:36Z,42.805,6.029,13.3000,4.60000,2470.194,2020-12-04T08:27:34Z
2020-12-04T06:29:39Z,42.805,6.029,13.2996,4.59997,2470.203,2020-12-04T08:30:37Z
2020-12-04T06:32:42Z,42.805,6.029,13.2996,4.59995,2470.18,2020-12-04T08:33:40Z
2020-12-04T06:35:45Z,42.805,6.029,13.3001,4.59997,2470.189,2020-12-04T08:36:43Z
2020-12-04T06:38:48Z,42.805,6.029,13.2998,4.59997,2470.227,2020-12-04T08:39:46Z
2020-12-04T06:41:51Z,42.805,6.029,13.2997,4.59997,2470.194,2020-12-04T08:42:49Z
2020-12-04T06:44:55Z,42.805,6.029,13.3000,4.59999,2470.217,2020-12-04T08:45:53Z
2020-12-04T06:47:58Z,42.805,6.029,13.2997,4.60001,2470.171,2020-12-04T08:48:56Z
2020-12-04T06:51:01Z,42.805,6.029,13.2996,4.59994,2470.24,2020-12-04T08:51:59Z
2020-12-04T06:54:04Z,42.805,6.029,13.2998,4.59994,2470.18,2020-12-04T08:55:02Z
2020-12-04T06:57:07Z,42.805,6.029,13.2998,4.59996,2470.217,2020-12-04T08:58:05Z
2020-12-04T07:00:10Z,42.805,6.029,13.2992,4.60001,2470.227,2020-12-04T09:01:08Z
2020-12-04T07:03:13Z,42.805,6.029,13.2996,4.59999,2470.25,2020-12-04T09:04:11Z
2020-12-04T07:06:16Z,42.805,6.029,13.2996,4.60002,2470.227,2020-12-04T09:07:14Z
2020-12-04T07:09:20Z,42.805,6.029,13.2996,4.59998,2470.24,2020-12-04T09:10:18Z
2020-12-04T07:12:23Z,42.805,6.029,13.2998,4.60001,2470.227,2020-12-04T09:13:21Z
2020-12-04T07:15:26Z,42.805,6.029,13.2997,4.59996,2470.227,2020-12-04T09:16:24Z
2020-12-04T07:18:29Z,42.805,6.029,13.2997,4.59996,2470.24,2020-12-04T09:19:27Z
2020-12-04T07:21:32Z,42.805,6.029,13.3001,4.59996,2470.287,2020-12-04T09:22:30Z
2020-12-04T07:24:35Z,42.805,6.029,13.2990,4.59997,2470.227,2020-12-04T09:25:33Z
2020-12-04T07:27:38Z,42.805,6.029,13.2994,4.59995,2470.264,2020-12-04T09:28:36Z
2020-12-04T07:30:41Z,42.805,6.029,13.2992,4.59997,2470.287,2020-12-04T09:31:39Z
2020-12-04T07:33:44Z,42.805,6.029,13.2994,4.59997,2470.287,2020-12-04T09:34:42Z
2020-12-04T07:36:48Z,42.805,6.029,13.3000,4.59999,2470.24,2020-12-04T09:37:46Z
2020-12-04T07:39:51Z,42.805,6.029,13.2994,4.59998,2470.25,2020-12-04T09:40:49Z
2020-12-04T07:42:54Z,42.805,6.029,13.2991,4.59999,2470.273,2020-12-04T09:43:52Z
2020-12-04T07:45:57Z,42.805,6.029,13.2998,4.60000,2470.264,2020-12-04T09:46:55Z
2020-12-04T07:49:00Z,42.805,6.029,13.3005,4.59999,2470.25,2020-12-04T09:49:58Z
2020-12-04T07:52:03Z,42.805,6.029,13.2993,4.59999,2470.25,2020-12-04T09:53:01Z
2020-12-04T07:55:06Z,42.805,6.029,13.2993,4.59995,2470.273,2020-12-04T09:56:04Z
2020-12-04T07:58:09Z,42.805,6.029,13.2995,4.59998,2470.264,2020-12-04T09:59:07Z
2020-12-04T08:01:13Z,42.805,6.029,13.2992,4.59999,2470.264,2020-12-04T10:02:11Z
2020-12-04T08:04:16Z,42.805,6.029,13.2989,4.59997,2470.287,2020-12-04T10:05:14Z
2020-12-04T08:07:19Z,42.805,6.029,13.2996,4.59996,2470.297,2020-12-04T10:08:17Z
2020-12-04T08:10:22Z,42.805,6.029,13.2998,4.59999,2470.287,2020-12-04T10:11:20Z
2020-12-04T08:13:25Z,42.805,6.029,13.2999,4.60016,2470.287,2020-12-04T10:14:23Z
2020-12-04T08:16:28Z,42.805,6.029,13.2997,4.59999,2470.297,2020-12-04T10:17:26Z
2020-12-04T08:19:31Z,42.805,6.029,13.2996,4.60001,2470.31,2020-12-04T10:20:29Z
2020-12-04T08:22:34Z,42.805,6.029,13.2998,4.59997,2470.297,2020-12-04T10:23:32Z
2020-12-04T08:25:37Z,42.805,6.029,13.2993,4.59998,2470.31,2020-12-04T10:26:36Z
2020-12-04T08:28:41Z,42.805,6.029,13.2996,4.60001,2470.287,2020-12-04T10:29:39Z
2020-12-04T08:31:44Z,42.805,6.029,13.2996,4.60014,2470.273,2020-12-04T10:32:42Z
2020-12-04T08:34:47Z,42.805,6.029,13.2998,4.60001,2470.273,2020-12-04T10:35:45Z
2020-12-04T08:37:50Z,42.805,6.029,13.2994,4.60003,2470.297,2020-12-04T10:38:48Z
2020-12-04T08:40:53Z,42.805,6.029,13.2999,4.60001,2470.273,2020-12-04T10:41:51Z
2020-12-04T08:43:56Z,42.805,6.029,13.2993,4.60007,2470.287,2020-12-04T10:44:54Z
2020-12-04T08:46:59Z,42.805,6.029,13.2997,4.59999,2470.297,2020-12-04T10:47:57Z
2020-12-04T08:50:02Z,42.805,6.029,13.2991,4.59999,2470.287,2020-12-04T10:51:01Z
2020-12-04T08:53:06Z,42.805,6.029,13.2995,4.60014,2470.334,2020-12-04T10:54:04Z
2020-12-04T08:56:09Z,42.805,6.029,13.2998,4.59999,2470.31,2020-12-04T10:57:07Z
2020-12-04T08:59:12Z,42.805,6.029,13.2998,4.60024,2470.297,2020-12-04T11:00:10Z
2020-12-04T09:02:15Z,42.805,6.029,13.3000,4.60000,2470.32,2020-12-04T11:03:13Z
2020-12-04T09:05:18Z,42.805,6.029,13.2996,4.59999,2470.297,2020-12-04T11:06:16Z
2020-12-04T09:08:21Z,42.805,6.029,13.2994,4.60012,2470.297,2020-12-04T11:09:19Z
2020-12-04T09:11:24Z,42.805,6.029,13.2993,4.60000,2470.297,2020-12-04T11:12:22Z
2020-12-04T09:14:27Z,42.805,6.029,13.3004,4.59997,2470.32,2020-12-04T11:15:26Z
2020-12-04T09:17:31Z,42.805,6.029,13.2991,4.59999,2470.334,2020-12-04T11:18:29Z
2020-12-04T09:20:34Z,42.805,6.029,13.2999,4.60002,2470.357,2020-12-04T11:21:32Z
2020-12-04T09:23:37Z,42.805,6.029,13.3034,4.60019,2470.31,2020-12-04T11:24:35Z
2020-12-04T09:26:40Z,42.805,6.029,13.3004,4.60005,2470.297,2020-12-04T11:27:38Z
2020-12-04T09:29:43Z,42.805,6.029,13.3023,4.60005,2470.32,2020-12-04T11:30:41Z
2020-12-04T09:32:46Z,42.805,6.029,13.3005,4.60003,2470.31,2020-12-04T11:33:44Z
2020-12-04T09:35:49Z,42.805,6.029,13.2996,4.60004,2470.334,2020-12-04T11:36:47Z
2020-12-04T09:38:52Z,42.805,6.029,13.2999,4.60001,2470.33,2020-12-04T11:39:50Z
2020-12-04T09:41:56Z,42.805,6.029,13.3004,4.59997,2470.357,2020-12-04T11:42:54Z
2020-12-04T09:44:59Z,42.805,6.029,13.2995,4.60000,2470.32,2020-12-04T11:45:57Z
2020-12-04T09:48:02Z,42.805,6.029,13.2993,4.59996,2470.357,2020-12-04T11:49:00Z
2020-12-04T09:51:05Z,42.805,6.029,13.3004,4.60001,2470.32,2020-12-04T11:52:03Z
2020-12-04T09:54:08Z,42.805,6.029,13.3000,4.60003,2470.297,2020-12-04T11:55:06Z
2020-12-04T09:57:11Z,42.805,6.029,13.2998,4.59998,2470.343,2020-12-04T11:58:09Z
2020-12-04T10:00:14Z,42.805,6.029,13.3001,4.59997,2470.32,2020-12-04T12:01:12Z
2020-12-04T10:03:17Z,42.805,6.029,13.3001,4.60001,2470.31,2020-12-04T12:04:15Z
2020-12-04T10:06:21Z,42.805,6.029,13.3006,4.60006,2470.334,2020-12-04T12:07:19Z
2020-12-04T10:09:24Z,42.805,6.029,13.3000,4.60003,2470.32,2020-12-04T12:10:22Z
2020-12-04T10:12:27Z,42.805,6.029,13.3002,4.60007,2470.32,2020-12-04T12:13:25Z
2020-12-04T10:15:30Z,42.805,6.029,13.3005,4.60009,2470.334,2020-12-04T12:16:28Z
2020-12-04T10:18:33Z,42.805,6.029,13.3004,4.60009,2470.357,2020-12-04T12:19:31Z
2020-12-04T10:21:36Z,42.805,6.029,13.3005,4.60007,2470.31,2020-12-04T12:22:34Z
2020-12-04T10:24:39Z,42.805,6.029,13.3000,4.60002,2470.32,2020-12-04T12:25:37Z
2020-12-04T10:27:42Z,42.805,6.029,13.3002,4.59999,2470.357,2020-12-04T12:28:40Z
2020-12-04T10:30:46Z,42.805,6.029,13.2999,4.60007,2470.334,2020-12-04T12:31:44Z
2020-12-04T10:33:49Z,42.805,6.029,13.3002,4.60003,2470.357,2020-12-04T12:34:47Z
2020-12-04T10:36:52Z,42.805,6.029,13.3003,4.60000,2470.38,2020-12-04T12:37:50Z
2020-12-04T10:39:55Z,42.805,6.029,13.3013,4.60009,2470.31,2020-12-04T12:40:53Z
2020-12-04T10:42:58Z,42.805,6.029,13.3002,4.60001,2470.334,2020-12-04T12:43:56Z
2020-12-04T10:46:01Z,42.805,6.029,13.3014,4.60006,2470.297,2020-12-04T12:46:59Z
2020-12-04T10:49:04Z,42.805,6.029,13.3004,4.60006,2470.32,2020-12-04T12:50:02Z
2020-12-04T10:52:07Z,42.805,6.029,13.3004,4.60003,2470.334,2020-12-04T12:53:05Z
2020-12-04T10:55:11Z,42.805,6.029,13.2993,4.60003,2470.297,2020-12-04T12:56:09Z
2020-12-04T10:58:14Z,42.805,6.029,13.2995,4.59997,2470.32,2020-12-04T12:59:12Z
2020-12-04T11:01:17Z,42.805,6.029,13.3000,4.60004,2470.334,2020-12-04T13:02:15Z
2020-12-04T11:04:20Z,42.805,6.029,13.2993,4.59999,2470.32,2020-12-04T13:05:18Z
2020-12-04T11:07:23Z,42.805,6.029,13.3001,4.59999,2470.283,2020-12-04T13:08:21Z
2020-12-04T11:10:26Z,42.805,6.029,13.3001,4.60001,2470.31,2020-12-04T13:11:24Z
2020-12-04T11:13:29Z,42.805,6.029,13.3002,4.60003,2470.297,2020-12-04T13:14:27Z
2020-12-04T11:16:32Z,42.805,6.029,13.3004,4.60007,2470.334,2020-12-04T13:17:30Z
2020-12-04T11:19:35Z,42.805,6.029,13.3001,4.60003,2470.297,2020-12-04T13:20:34Z
2020-12-04T11:22:39Z,42.805,6.029,13.3001,4.60000,2470.32,2020-12-04T13:23:37Z
2020-12-04T11:25:42Z,42.805,6.029,13.2997,4.60001,2470.334,2020-12-04T13:26:40Z
2020-12-04T11:28:45Z,42.805,6.029,13.3005,4.59999,2470.287,2020-12-04T13:29:43Z
2020-12-04T11:31:48Z,42.805,6.029,13.2993,4.59999,2470.287,2020-12-04T13:32:46Z
2020-12-04T11:34:51Z,42.805,6.029,13.3006,4.59999,2470.297,2020-12-04T13:35:49Z
2020-12-04T11:37:54Z,42.805,6.029,13.3007,4.60005,2470.273,2020-12-04T13:38:52Z
2020-12-04T11:40:57Z,42.805,6.029,13.3005,4.60009,2470.32,2020-12-04T13:41:55Z
2020-12-04T11:44:01Z,42.805,6.029,13.3003,4.60003,2470.273,2020-12-04T13:44:59Z
2020-12-04T11:47:04Z,42.805,6.029,13.3002,4.60017,2470.287,2020-12-04T13:48:02Z
2020-12-04T11:50:07Z,42.805,6.029,13.3002,4.59999,2470.334,2020-12-04T13:51:05Z
2020-12-04T11:53:10Z,42.805,6.029,13.3005,4.60004,2470.32,2020-12-04T13:54:08Z
2020-12-04T11:56:13Z,42.805,6.029,13.3009,4.60009,2470.297,2020-12-04T13:57:11Z
2020-12-04T11:59:16Z,42.805,6.029,13.3004,4.60015,2470.31,2020-12-04T14:00:14Z
2020-12-04T12:02:19Z,42.805,6.029,13.3010,4.60010,2470.273,2020-12-04T14:03:17Z
2020-12-04T12:05:22Z,42.805,6.029,13.3005,4.60010,2470.297,2020-12-04T14:06:20Z
2020-12-04T12:08:25Z,42.805,6.029,13.3005,4.60006,2470.25,2020-12-04T14:09:24Z
2020-12-04T12:11:29Z,42.805,6.029,13.3000,4.60002,2470.31,2020-12-04T14:12:27Z
2020-12-04T12:14:32Z,42.805,6.029,13.2994,4.59995,2470.273,2020-12-04T14:15:30Z
2020-12-04T12:17:35Z,42.805,6.029,13.2997,4.59999,2470.273,2020-12-04T14:18:33Z
2020-12-04T12:20:38Z,42.805,6.029,13.3005,4.60002,2470.31,2020-12-04T14:21:36Z
2020-12-04T12:23:41Z,42.805,6.029,13.2999,4.60003,2470.287,2020-12-04T14:24:39Z
2020-12-04T12:26:44Z,42.805,6.029,13.3001,4.60002,2470.273,2020-12-04T14:27:42Z
2020-12-04T12:29:47Z,42.805,6.029,13.2991,4.59999,2470.264,2020-12-04T14:30:45Z
2020-12-04T12:32:50Z,42.805,6.029,13.2995,4.60000,2470.31,2020-12-04T14:33:49Z
2020-12-04T12:35:54Z,42.805,6.029,13.2999,4.59998,2470.31,2020-12-04T14:36:52Z
2020-12-04T12:38:57Z,42.805,6.029,13.2993,4.59997,2470.287,2020-12-04T14:39:55Z
2020-12-04T12:42:00Z,42.805,6.029,13.3000,4.60003,2470.273,2020-12-04T14:42:58Z
2020-12-04T12:45:03Z,42.805,6.029,13.2995,4.60001,2470.25,2020-12-04T14:46:01Z
2020-12-04T12:48:06Z,42.805,6.029,13.2996,4.59994,2470.287,2020-12-04T14:49:04Z
2020-12-04T12:51:09Z,42.805,6.029,13.3004,4.60000,2470.264,2020-12-04T14:52:07Z
2020-12-04T12:54:12Z,42.805,6.029,13.2992,4.59999,2470.25,2020-12-04T14:55:10Z
2020-12-04T12:57:15Z,42.805,6.029,13.3003,4.60001,2470.217,2020-12-04T14:58:14Z
2020-12-04T13:00:19Z,42.805,6.029,13.2998,4.60005,2470.287,2020-12-04T15:01:17Z
2020-12-04T13:03:22Z,42.805,6.029,13.2992,4.60000,2470.273,2020-12-04T15:04:20Z
2020-12-04T13:06:25Z,42.805,6.029,13.3001,4.60026,2470.25,2020-12-04T15:07:23Z
2020-12-04T13:09:28Z,42.805,6.029,13.3004,4.60003,2470.273,2020-12-04T15:10:26Z
2020-12-04T13:12:31Z,42.805,6.029,13.2999,4.59991,2470.287,2020-12-04T15:13:29Z
2020-12-04T13:15:34Z,42.805,6.029,13.2996,4.60002,2470.25,2020-12-04T15:16:32Z
2020-12-04T13:18:37Z,42.805,6.029,13.2993,4.60001,2470.217,2020-12-04T15:19:35Z
2020-12-04T13:21:40Z,42.805,6.029,13.2996,4.59997,2470.227,2020-12-04T15:22:39Z
2020-12-04T13:24:44Z,42.805,6.029,13.3003,4.60003,2470.227,2020-12-04T15:25:42Z
2020-12-04T13:27:47Z,42.805,6.029,13.3002,4.59998,2470.25,2020-12-04T15:28:45Z
2020-12-04T13:30:50Z,42.805,6.029,13.2997,4.60000,2470.25,2020-12-04T15:31:48Z
2020-12-04T13:33:53Z,42.805,6.029,13.2999,4.60003,2470.217,2020-12-04T15:34:51Z
2020-12-04T13:36:56Z,42.805,6.029,13.3003,4.59996,2470.203,2020-12-04T15:37:54Z
2020-12-04T13:39:59Z,42.805,6.029,13.2991,4.59999,2470.25,2020-12-04T15:40:57Z
2020-12-04T13:43:02Z,42.805,6.029,13.3000,4.59999,2470.264,2020-12-04T15:44:00Z
2020-12-04T13:46:05Z,42.805,6.029,13.2993,4.59997,2470.217,2020-12-04T15:47:03Z
2020-12-04T13:49:09Z,42.805,6.029,13.2994,4.60003,2470.25,2020-12-04T15:50:07Z
2020-12-04T13:52:12Z,42.805,6.029,13.3011,4.60003,2470.217,2020-12-04T15:53:10Z
2020-12-04T13:55:15Z,42.805,6.029,13.2997,4.60001,2470.264,2020-12-04T15:56:13Z
2020-12-04T13:58:18Z,42.805,6.029,13.3005,4.59999,2470.287,2020-12-04T15:59:16Z
2020-12-04T14:01:21Z,42.805,6.029,13.2999,4.59999,2470.24,2020-12-04T16:02:19Z
2020-12-04T14:04:24Z,42.805,6.029,13.2996,4.60000,2470.227,2020-12-04T16:05:22Z
2020-12-04T14:07:27Z,42.805,6.029,13.3008,4.60003,2470.227,2020-12-04T16:08:25Z
2020-12-04T14:10:30Z,42.805,6.029,13.3002,4.59997,2470.227,2020-12-04T16:11:28Z
2020-12-04T14:13:34Z,42.805,6.029,13.3000,4.59998,2470.203,2020-12-04T16:14:32Z
2020-12-04T14:16:37Z,42.805,6.029,13.2995,4.60006,2470.217,2020-12-04T16:17:35Z
2020-12-04T14:19:40Z,42.805,6.029,13.2995,4.60004,2470.203,2020-12-04T16:20:38Z
2020-12-04T14:22:43Z,42.805,6.029,13.2998,4.60002,2470.217,2020-12-04T16:23:41Z
2020-12-04T14:25:46Z,42.805,6.029,13.3003,4.59999,2470.203,2020-12-04T16:26:44Z
2020-12-04T14:28:49Z,42.805,6.029,13.3003,4.59998,2470.217,2020-12-04T16:29:47Z
2020-12-04T14:31:52Z,42.805,6.029,13.2993,4.60003,2470.227,2020-12-04T16:32:50Z
2020-12-04T14:34:55Z,42.805,6.029,13.3000,4.60001,2470.18,2020-12-04T16:35:53Z
2020-12-04T14:37:59Z,42.805,6.029,13.2994,4.60001,2470.18,2020-12-04T16:38:57Z
2020-12-04T14:41:02Z,42.805,6.029,13.3000,4.60008,2470.217,2020-12-04T16:42:00Z
2020-12-04T14:44:05Z,42.805,6.029,13.2994,4.59999,2470.227,2020-12-04T16:45:03Z
2020-12-04T14:47:08Z,42.805,6.029,13.2998,4.60001,2470.217,2020-12-04T16:48:06Z
2020-12-04T14:50:11Z,42.805,6.029,13.3006,4.59996,2470.227,2020-12-04T16:51:09Z
2020-12-04T14:53:14Z,42.805,6.029,13.2998,4.59999,2470.24,2020-12-04T16:54:12Z
2020-12-04T14:56:17Z,42.805,6.029,13.3008,4.59999,2470.194,2020-12-04T16:57:15Z
2020-12-04T14:59:20Z,42.805,6.029,13.3000,4.59995,2470.203,2020-12-04T17:00:18Z
2020-12-04T15:02:23Z,42.805,6.029,13.2998,4.60000,2470.227,2020-12-04T17:03:22Z